Terminal Aerodrome Forecast
Issued by NWS Billings, MT

Home | Current Version | Previous Version | Text Only | Print | Product List | Glossary On
Versions: 1 2 3 4 5 6 7 8 9 10 11 12 13 14 15 16 17 18 19 20 21 22 23
000
FTUS45 KBYZ 212334
TAFBIL
TAF
KBIL 212334Z 2200/2224 27023G35KT P6SM BKN080
     FM220800 27011KT P6SM FEW080 SCT120=

USA.gov is the U.S. government's official web portal to all federal, state and local government web resources and services.